Probability
0 0 0 0 0 0 0 0 0 0 0 0 0 0 0 0 0 0 0 0 0 0 0 0 0 0 0 0 0 1 3 3 1 0 0 0 0 0 0 0 0 0 0 0
0 0 0 0 0 0 0 0 0 0 0 0 0 0 0 0 0 0 0 0 0 0 0 0 0 0 0 0 0 0 2 2 1 0 0 0 0 0 0 0 0 0 0 0
0 0 0 0 0 0 0 0 0 0 0 0 0 0 0 0 0 0 0 0 0 0 0 0 0 0 0 0 0 0 1 2 2 1 0 0 0 0 0 0 0 0 0 0
0 0 0 0 0 0 0 0 0 0 0 0 0 0 0 0 0 0 0 0 0 0 0 0 0 0 0 0 0 0 0 1 2 1 0 0 0 0 0 0 0 0 0 0
0 0 0 0 0 0 0 0 0 0 0 0 0 0 0 0 0 0 0 0 0 0 0 0 0 0 0 0 1 1 0 1 2 2 1 0 0 0 0 0 0 0 0 0
0 0 0 0 0 0 0 0 0 0 0 0 0 0 0 0 0 0 0 0 0 0 0 0 0 1 1 1 2 2 1 0 1 2 1 0 0 0 0 0 0 0 0 0
0 0 0 0 0 0 0 0 0 0 0 0 0 0 0 0 0 0 0 0 0 0 0 0 0 1 1 1 3 4 3 1 1 2 1 0 0 0 0 0 0 0 0 0
0 0 0 0 0 0 0 0 0 0 0 0 0 0 0 0 0 0 0 0 0 0 0 0 0 0 1 1 3 4 3 2 1 1 1 0 0 0 0 0 0 0 0 0
0 0 0 0 0 0 0 0 0 0 0 0 0 0 0 0 0 0 0 0 0 0 0 0 0 0 0 1 2 2 2 3 2 1 1 1 0 0 0 0 0 0 0 0
0 0 0 0 0 0 0 0 0 0 0 0 0 0 0 0 0 0 0 0 0 0 0 0 0 0 0 1 1 1 1 2 2 1 2 2 1 0 0 0 0 0 0 0
0 0 0 0 0 0 0 0 0 0 0 0 0 0 0 0 0 0 0 0 0 0 0 0 0 0 0 1 1 1 0 1 1 0 1 1 1 0 0 0 0 0 0 0
0 0 0 0 0 0 0 0 0 0 0 0 0 0 0 0 0 0 0 0 0 0 0 0 0 0 0 0 1 1 0 0 0 0 0 0 0 0 0 0 0 0 0 0
0 0 0 0 0 0 0 0 0 0 0 0 0 0 0 0 0 0 0 0 0 0 0 0 0 0 0 0 0 0 0 0 0 0 0 0 0 0 0 0 0 0 0 0
0 0 0 0 0 0 0 0 0 0 0 0 0 0 0 0 0 0 0 0 0 0 0 0 0 0 0 0 0 0 0 0 0 0 0 0 0 0 0 0 0 0 0 0
0 0 0 0 0 0 0 0 0 0 0 0 0 0 0 0 0 0 0 0 0 0 0 0 0 0 0 0 0 0 0 0 0 0 0 0 0 0 0 0 0 0 0 0
0 0 0 0 0 0 0 0 0 0 0 0 0 0 0 0 0 0 0 0 0 0 0 0 0 0 0 0 0 0 0 0 0 0 0 0 0 0 0 0 0 0 0 0
0 0 0 0 0 0 0 0 0 0 0 0 0 0 0 0 0 0 0 0 0 0 0 0 0 0 0 0 0 0 0 0 0 0 0 0 0 0 0 0 0 0 0 0
0 0 0 0 0 0 0 0 0 0 0 0 0 0 0 0 0 0 0 0 0 0 0 0 0 0 0 0 0 0 0 0 0 0 0 0 0 0 0 0 0 0 0 0
0 0 0 0 0 0 0 0 0 0 0 0 0 0 0 0 0 0 0 0 0 0 0 0 0 0 0 0 0 0 0 0 0 0 0 0 0 0 0 0 0 0 0 0
0 0 0 0 0 0 0 0 0 0 0 0 0 0 0 0 0 0 0 0 0 0 0 0 0 0 0 0 0 0 0 0 0 0 0 0 0 0 0 0 0 0 0 0
0 0 0 0 0 0 0 0 0 0 0 0 0 0 0 0 0 0 0 0 0 0 0 0 0 0 0 0 0 0 0 0 0 0 0 0 0 0 0 0 0 0 0 0
0 0 0 0 0 0 0 0 0 0 0 0 0 0 0 0 0 0 0 0 0 0 0 0 0 0 0 0 0 0 0 0 0 0 0 0 0 0 0 0 0 0 0 0
0 0 0 0 0 0 0 0 0 0 0 0 0 0 0 0 0 0 0 0 0 0 0 0 0 0 0 0 0 0 0 0 0 0 0 0 0 0 0 0 0 0 0 0
0 0 0 0 0 0 0 0 0 0 0 0 0 0 0 0 0 0 0 0 0 0 0 0 0 0 0 0 0 0 0 0 0 0 0 0 0 0 0 0 0 0 0 0
0 0 0 0 0 0 0 0 0 0 0 0 0 0 0 0 0 0 0 0 0 0 0 0 0 0 0 0 0 0 0 0 0 0 0 0 0 0 0 0 0 0 0 0
0 0 0 0 0 0 0 0 0 0 0 0 0 0 0 0 0 0 0 0 0 0 0 0 0 0 0 0 0 0 0 0 0 0 0 0 0 0 0 0 0 0 0 0
Wind_Speed
9 10 15 18 21 19 17 18 19 18 14 15 19 20 17 15 14 14 14 13 14 14 13 14 14 14 14 15 17 18 17 15 13 11 10 10 8 7 6 6 9 10 9 9
10 18 20 18 18 20 21 21 21 16 14 15 15 18 16 15 16 14 13 13 13 13 13 14 14 14 15 16 17 18 18 17 16 12 11 9 8 6 6 6 8 10 9 9
17 13 13 17 18 20 22 21 19 17 14 13 13 17 17 15 16 16 15 13 12 14 14 14 15 15 14 16 17 17 19 18 17 13 9 8 7 5 6 7 7 9 10 10
14 15 15 17 18 19 20 18 18 17 14 10 11 12 14 15 16 18 17 15 14 13 12 13 14 16 16 16 16 16 18 18 17 16 13 15 13 11 10 9 7 8 10 10
11 10 13 18 19 17 17 14 15 16 14 13 13 12 11 13 18 19 18 17 15 13 13 12 13 15 15 15 15 15 16 17 17 17 16 16 12 10 7 7 10 10 9 10
17 14 13 14 15 15 13 11 12 11 9 16 18 15 11 12 17 17 17 17 17 15 14 13 12 12 13 14 14 14 16 16 17 18 17 17 16 13 12 11 11 10 8 9
12 15 14 11 12 12 11 7 6 7 10 12 13 15 12 11 14 16 16 16 16 16 15 14 12 13 14 15 15 15 17 16 17 18 18 18 17 16 15 13 12 11 9 9
7 9 8 7 11 8 11 13 10 7 8 8 12 15 11 12 12 11 11 11 12 13 14 14 14 13 14 16 17 17 18 17 18 19 18 17 16 12 11 12 10 12 10 10
5 7 6 7 7 9 11 11 11 9 9 8 7 9 11 9 11 12 11 10 10 11 11 11 12 13 14 16 17 18 18 16 17 17 17 16 16 14 12 11 11 10 8 9
4 8 9 8 7 9 9 7 5 8 7 9 9 11 8 9 10 10 10 10 10 9 10 9 10 11 11 14 15 16 17 16 15 16 16 13 15 15 12 10 11 11 11 10
4 5 7 6 7 7 6 8 7 6 6 5 6 8 8 7 7 8 8 8 8 8 8 8 7 9 10 10 13 14 15 14 14 15 14 14 14 13 12 11 11 11 10 12
4 4 6 9 8 7 7 7 6 6 7 6 6 7 4 4 5 5 6 6 5 5 6 6 6 6 8 10 11 12 13 14 14 14 13 14 13 13 13 12 11 11 11 11
2 3 4 4 4 3 4 4 6 6 5 7 7 8 5 6 4 3 3 2 3 4 4 4 5 6 7 9 10 10 11 12 11 12 13 13 13 13 13 12 11 11 11 10
4 4 6 7 6 4 7 9 8 6 6 7 11 12 9 9 7 3 2 1 1 4 5 5 4 5 6 7 9 10 10 11 11 11 12 13 13 14 13 12 11 11 11 11
2 6 9 13 14 13 13 13 12 12 10 10 12 13 11 9 8 4 1 2 1 2 4 4 4 4 5 5 6 8 9 10 10 11 11 11 11 11 11 11 11 10 10 10
3 5 8 12 13 13 16 15 15 15 15 15 15 15 9 8 7 4 1 0 0 1 2 3 4 5 5 6 6 6 7 9 10 11 10 10 10 10 11 11 11 11 10 10
4 4 5 9 11 11 13 13 15 14 13 13 14 11 6 6 6 3 1 1 1 1 1 3 4 5 6 6 6 7 7 8 10 10 10 10 11 11 11 11 11 11 11 10
7 6 5 6 6 10 8 6 9 11 11 10 10 8 6 8 7 3 0 0 2 1 2 2 3 4 4 4 5 6 7 8 9 10 10 10 11 11 11 11 11 11 10 10
11 9 5 4 6 10 9 7 8 9 9 6 8 8 6 7 6 3 2 2 3 3 2 3 3 4 5 6 6 6 7 8 9 10 11 11 11 12 12 12 12 10 10 9
10 9 7 6 7 8 5 5 6 6 7 3 5 6 5 5 3 5 5 5 4 3 2 1 1 3 5 6 7 7 8 9 10 10 10 10 11 12 12 12 11 9 9 9
6 7 10 10 9 8 6 7 4 3 3 5 4 4 4 4 5 6 6 6 5 3 2 1 1 4 5 7 8 8 8 9 9 9 10 10 10 11 11 10 9 10 10 10
6 5 7 7 10 10 5 3 2 4 5 5 5 6 6 7 7 7 6 6 5 3 2 1 1 2 4 6 8 8 8 7 9 10 10 10 10 9 10 11 10 10 11 11
7 7 5 7 8 7 5 5 5 6 7 7 6 7 8 9 8 8 7 6 6 5 3 2 2 2 3 6 7 9 8 9 11 11 11 10 10 10 10 11 12 11 10 9
6 6 7 8 9 9 8 8 8 8 9 9 10 10 9 9 9 9 7 6 6 5 4 2 2 3 4 4 6 7 9 10 11 12 11 11 11 10 9 8 9 9 9 9
7 5 8 11 11 11 10 8 9 10 10 11 11 11 9 9 10 9 8 6 6 6 4 3 4 5 5 5 6 7 9 11 11 12 11 11 10 10 9 7 6 7 6 9
8 9 10 11 9 9 10 9 9 11 12 12 12 12 10 9 10 10 9 7 6 6 4 4 5 5 5 5 7 8 9 11 13 12 11 9 9 9 9 9 8 9 9 12
Wind_Direction
219 220 224 222 223 235 245 246 248 247 242 234 238 242 239 232 234 233 225 219 214 212 202 194 190 184 178 175 173 173 173 174 171 175 176 176 179 175 174 171 171 172 171 169
239 234 236 239 240 241 245 249 252 258 253 245 246 249 243 230 228 231 229 223 217 212 203 194 187 183 180 177 175 174 175 178 178 182 179 175 171 173 173 170 174 176 175 173
243 247 246 243 241 242 243 244 247 252 263 265 262 257 247 242 232 229 229 227 221 215 208 197 188 184 180 180 178 178 178 179 181 176 169 163 161 166 176 183 184 183 179 177
252 249 249 250 245 239 246 246 250 252 252 251 238 255 241 235 234 229 225 223 224 218 213 202 191 185 183 180 178 178 178 179 180 177 177 176 180 185 188 183 182 182 183 181
252 254 250 249 250 247 251 254 255 253 250 255 243 250 246 225 230 226 222 218 219 216 214 208 196 186 182 177 176 179 178 180 179 181 183 184 188 188 176 174 179 185 188 185
259 261 250 247 251 253 255 256 263 257 246 244 234 235 249 222 227 224 220 216 213 212 212 210 198 184 180 176 175 177 179 181 180 183 185 188 189 184 179 182 184 186 187 189
262 255 242 237 250 247 238 219 223 217 221 236 223 228 240 227 228 226 220 215 210 208 207 205 196 186 180 176 177 178 180 183 183 184 188 191 192 190 188 186 186 184 184 189
259 263 241 231 232 229 228 215 219 219 220 235 218 227 234 223 231 232 226 214 206 205 203 200 195 188 181 178 178 181 184 186 185 187 191 191 191 192 194 188 185 188 190 190
262 264 274 267 253 228 220 223 232 253 262 262 234 240 242 226 229 227 225 217 209 203 200 196 191 190 182 179 181 182 185 187 188 189 189 191 192 192 193 187 184 186 185 182
270 281 275 270 265 240 226 220 227 225 233 239 237 236 231 208 219 220 216 212 214 204 198 195 192 187 183 179 179 181 184 187 186 187 188 190 191 192 189 185 185 183 181 176
266 269 276 261 234 235 223 217 225 230 240 244 241 240 216 202 205 206 216 218 209 201 193 190 187 184 176 170 174 179 183 184 185 187 187 186 187 186 185 186 186 181 178 175
251 257 265 260 253 246 242 221 215 226 239 241 254 257 246 228 233 220 219 219 208 192 188 179 175 172 174 172 173 177 180 182 184 184 183 184 181 181 184 186 184 178 177 176
264 257 282 273 217 217 244 235 232 252 252 246 241 255 300 317 285 268 251 220 204 180 170 160 160 167 172 174 174 175 178 179 179 178 179 179 179 180 183 184 181 178 176 173
281 246 246 261 278 281 264 261 245 240 236 250 251 265 290 307 303 306 310 284 187 166 157 157 163 169 174 175 174 171 173 173 173 173 175 179 181 181 180 177 176 175 173 170
271 261 263 272 277 271 263 257 251 241 239 245 259 266 274 283 285 289 326 358 55 118 146 157 167 168 164 167 166 168 167 169 169 170 173 177 174 171 169 168 168 167 167 167
245 267 283 278 275 274 269 257 248 248 245 248 261 268 273 272 280 294 305 348 321 173 157 165 174 168 166 170 168 163 168 166 165 168 170 163 161 162 163 163 162 161 162 162
235 246 267 272 280 282 260 245 242 240 240 240 250 262 287 287 298 287 268 178 253 232 168 191 187 182 178 177 171 171 170 162 162 163 161 160 158 159 160 158 158 160 161 157
230 239 249 268 274 249 247 252 250 250 250 247 261 273 280 288 278 272 317 325 285 273 243 225 200 181 173 168 165 164 160 161 159 159 159 159 157 157 156 157 159 158 156 158
220 219 234 250 256 268 268 261 252 246 251 262 269 280 297 302 284 267 317 303 269 263 254 220 207 178 166 163 161 157 159 158 157 160 161 160 158 156 157 159 158 155 152 152
210 207 226 240 249 254 276 293 277 249 249 294 295 287 297 314 281 280 315 311 302 297 298 273 216 168 164 166 159 159 163 163 166 163 159 156 156 157 158 156 152 147 145 144
204 209 221 238 249 262 287 306 319 232 280 328 296 294 304 280 270 288 305 309 299 286 279 239 197 177 175 165 161 166 168 172 163 150 149 151 153 153 150 145 143 141 138 137
212 212 219 229 238 250 299 328 295 287 309 323 322 313 301 296 301 306 311 310 306 301 284 232 211 192 173 167 167 171 173 158 146 144 147 148 147 145 143 141 140 141 141 140
219 214 217 222 239 270 291 288 291 304 311 313 315 315 315 307 303 302 302 302 300 288 263 229 208 197 180 179 175 173 164 147 145 145 146 145 142 141 144 145 145 144 144 145
244 234 245 256 260 272 283 292 300 304 303 307 308 307 305 301 300 298 295 295 299 295 266 232 197 200 195 188 177 166 153 147 147 147 146 145 142 140 139 139 144 148 152 151
259 260 257 262 269 279 274 280 292 300 303 304 304 300 295 293 291 290 286 280 278 285 268 228 204 208 201 183 169 157 151 149 148 146 146 144 141 140 135 129 134 144 153 159
245 247 251 259 266 272 280 285 292 295 295 295 296 297 295 287 285 285 280 269 262 262 254 232 214 209 196 178 167 160 156 154 150 149 149 147 142 137 133 126 105 86 113 127